Flag for Colombia Weather past 2 weeks in Santa Marta, Colombia

Now
75 °F

Fog.


Feels Like: 73 °F
Forecast: 80 / 86 °F
Wind: 5 mph from South

Location: Barranquilla / Ernestocortissoz

Current Time: Oct 25, 2014 at 6:40:07 AM

Latest Report: Oct 25, 2014 at 6:00 AM


Visibility: 2 mi

Pressure: 29.84 "Hg

Humidity: 100%

Dew point: 75 °F

Location of Santa MartaLocation

Historic Weather in Santa Marta — Graph

°F

Santa Marta temperature yesterday

Maximum temperature yesterday: 91 °F (at 1:00 PM)
Minimum temperature yesterday: 79 °F (at 5:00 AM)
Average temperature yesterday: 84 °F

Past Weeks' High & Low Weather Summary

 TemperatureHumidityPressure
High93 °F (Oct 13, 1:00 PM)100% (Oct 10, 5:00 AM)29.95 "Hg (Oct 10, 5:00 AM)
Low72 °F (Oct 19, 7:00 PM)63% (Oct 10, 1:00 PM)29.75 "Hg (Oct 24, 3:00 PM)
Average82 °F87%29.85 "Hg
* Reported Oct 10 5:00 AM — Oct 25 5:00 AM, Santa Marta, Weather by CustomWeather, © 2014

Note: Actual official high and low records may vary slightly from our data, if they occured in-between our weather recording intervals... More about our weather records

Advertising

Santa Marta weather history for previous 24 hours

 ConditionsComfort  
Time TempWeatherWind HumidityBarometerVisibility
5:00 AM
Oct 25
77 °FFog.3 mph94%29.82 "Hg4 mi
4:00 AM79 °FPassing clouds.No wind94%29.82 "HgN/A
3:00 AM79 °FPassing clouds.5 mph94%29.82 "HgN/A
2:00 AM79 °FPassing clouds.6 mph94%29.83 "HgN/A
1:00 AM79 °FPassing clouds.5 mph94%29.83 "HgN/A
12:00 AM81 °FPassing clouds.5 mph94%29.84 "HgN/A
11:00 PM
Oct 24
82 °FPassing clouds.3 mph94%29.85 "HgN/A
10:00 PM82 °FPassing clouds.5 mph89%29.85 "HgN/A
9:00 PM82 °FPassing clouds.7 mph89%29.84 "HgN/A
8:00 PM82 °FPassing clouds.9 mph89%29.80 "HgN/A
7:00 PM82 °FPassing clouds.9 mph89%29.79 "HgN/A
6:00 PM84 °FPassing clouds.5 mph84%29.76 "HgN/A
5:00 PM86 °FPassing clouds.8 mph84%29.76 "HgN/A
4:00 PM88 °FScattered showers. Scattered clouds.8 mph79%29.75 "Hg5 mi
3:00 PM91 °FScattered clouds.10 mph71%29.75 "HgN/A
2:00 PM91 °FScattered clouds.5 mph71%29.77 "HgN/A
1:00 PM91 °FScattered clouds.6 mph71%29.80 "HgN/A
12:00 PM90 °FScattered clouds.12 mph71%29.82 "HgN/A
11:00 AM90 °FPartly sunny.12 mph75%29.85 "HgN/A
10:00 AM88 °FPartly sunny.12 mph79%29.87 "HgN/A
9:00 AM84 °FPartly sunny.10 mph89%29.88 "Hg5 mi
8:00 AM81 °FPartly sunny.8 mph94%29.86 "Hg4 mi
7:00 AM81 °FFog.5 mph94%29.85 "Hg3 mi
6:00 AM79 °FFog.3 mph100%29.82 "Hg4 mi
Weather by CustomWeather, © 2014

See weather overviewHow to use our weather pages